Regional Weather Roundup
Issued by NWS Goodland, KS

Home | Current Version | Previous Version | Graphics & Text | Print | Product List | Glossary On
Versions: 1 2 3 4 5 6 7 8 9 10 11 12 13 14 15 16 17 18 19 20 21 22 23 24 25 26 27 28 29 30 31 32 33 34 35 36 37 38 39 40 41 42 43 44 45 46 47 48 49 50
370
ASUS43 KGLD 242159
RWRGLD

GOODLAND FORECAST AREA HOURLY WEATHER ROUNDUP
NATIONAL WEATHER SERVICE GOODLAND KS
400 PM MDT FRI MAR 24 2017

...OFFICIAL OBSERVATIONS...

CITY           SKY/WX    TMP DP  RH WIND       PRES   REMARKS
GOODLAND KS    LGT SNOW  37  36  96 N28G33    30.03R FOG
HILL CITY KS   CLOUDY    45  42  89 N23G31    29.96R
IMPERIAL NEB   LGT RAIN  44  39  82 N18       30.07R
MCCOOK NEB     CLOUDY    41  40  96 N18       30.01S
AKRON CO       PTSUNNY   49  33  54 N21       30.10R
BURLINGTON CO  CLOUDY    38  36  92 N22G33    30.05R
LIMON CO       CLOUDY    41  36  82 N14       30.11R
$$

...UNOFFICIAL OBSERVATIONS...

CITY           SKY/WX    TMP DP  RH WIND       PRES   REMARKS
LENORA KS        N/A     42  32  68 N12         N/A
NORTON KS      CLOUDY    41  36  81 N16G25    29.97R
SHARON SPRINGS   N/A     40  38  93 NW25G36     N/A
TRENTON NEB      N/A     40  32  73 N9          N/A
YUMA CO        DRIZZLE   41  37  87 NE14      30.10R
$$




USA.gov is the U.S. government's official web portal to all federal, state and local government web resources and services.